{"data":{"norad_id":52636,"epoch":"2026-09-20T03:53:11.895072Z","epoch_age_seconds":95648,"freshness":"FRESH","line1":"1 52636U 22052AQ  26263.16194323  .00000341  00000+0  20669-4 0  9995","line2":"2 52636  53.1596 104.6751 0001221  85.3650 274.7493 15.35400555240500","mean_motion":15.35400555,"eccentricity":0.0001221,"inclination_deg":53.1596,"raan_deg":104.6751,"arg_perigee_deg":85.365,"mean_anomaly_deg":274.7493,"bstar":2.0669e-5,"rev_number":24050,"period_min":93.786601503475,"perigee_km":458.89609127266,"apogee_km":460.56589863703,"semimajor_km":6837.8679949548,"source":"CELESTRAK","updated_at":"2026-09-20T09:00:40.096932Z"}}